"Projectnaam";"Meetpunt";"Peildatum";"GWS"
"Vijverwijk Veghel";"VEGH011_O";"2023-01-12 11:00:00";"7.21"
"Vijverwijk Veghel";"VEGH011_O";"2023-01-12 12:00:00";"7.24"
"Vijverwijk Veghel";"VEGH011_O";"2023-01-12 13:00:00";"7.24"
"Vijverwijk Veghel";"VEGH011_O";"2023-01-12 14:00:00";"7.24"
"Vijverwijk Veghel";"VEGH011_O";"2023-01-12 15:00:00";"7.26"
"Vijverwijk Veghel";"VEGH011_O";"2023-01-12 16:00:00";"7.26"
"Vijverwijk Veghel";"VEGH011_O";"2023-01-12 17:00:00";"7.27"
"Vijverwijk Veghel";"VEGH011_O";"2023-01-12 18:00:00";"7.27"
"Vijverwijk Veghel";"VEGH011_O";"2023-01-12 19:00:00";"7.28"
"Vijverwijk Veghel";"VEGH011_O";"2023-01-12 20:00:00";"7.3"
"Vijverwijk Veghel";"VEGH011_O";"2023-01-12 21:00:00";"7.3"
"Vijverwijk Veghel";"VEGH011_O";"2023-01-12 22:00:00";"7.31"
"Vijverwijk Veghel";"VEGH011_O";"2023-01-12 23:00:00";"7.31"
"Vijverwijk Veghel";"VEGH011_O";"2023-01-13 00:00:00";"7.31"
"Vijverwijk Veghel";"VEGH011_O";"2023-01-13 01:00:00";"7.3"
"Vijverwijk Veghel";"VEGH011_O";"2023-01-13 02:00:00";"7.29"
"Vijverwijk Veghel";"VEGH011_O";"2023-01-13 03:00:00";"7.3"
"Vijverwijk Veghel";"VEGH011_O";"2023-01-13 04:00:00";"7.28"
"Vijverwijk Veghel";"VEGH011_O";"2023-01-13 05:00:00";"7.25"
"Vijverwijk Veghel";"VEGH011_O";"2023-01-13 06:00:00";"7.21"
"Vijverwijk Veghel";"VEGH011_O";"2023-01-13 07:00:00";"7.16"
"Vijverwijk Veghel";"VEGH011_O";"2023-01-13 08:00:00";"7.14"
"Vijverwijk Veghel";"VEGH011_O";"2023-01-13 09:00:00";"7.09"
"Vijverwijk Veghel";"VEGH011_O";"2023-01-13 10:00:00";"7.05"
"Vijverwijk Veghel";"VEGH011_O";"2023-01-13 11:00:00";"7.05"
"Vijverwijk Veghel";"VEGH011_O";"2023-01-13 12:00:00";"7.04"
"Vijverwijk Veghel";"VEGH011_O";"2023-01-13 13:00:00";"7.02"
"Vijverwijk Veghel";"VEGH011_O";"2023-01-13 14:00:00";"7.03"
"Vijverwijk Veghel";"VEGH011_O";"2023-01-13 15:00:00";"7.04"
"Vijverwijk Veghel";"VEGH011_O";"2023-01-13 16:00:00";"7.07"
"Vijverwijk Veghel";"VEGH011_O";"2023-01-13 17:00:00";"7.09"
"Vijverwijk Veghel";"VEGH011_O";"2023-01-13 18:00:00";"7.09"
"Vijverwijk Veghel";"VEGH011_O";"2023-01-13 19:00:00";"7.08"
"Vijverwijk Veghel";"VEGH011_O";"2023-01-13 20:00:00";"7.06"
"Vijverwijk Veghel";"VEGH011_O";"2023-01-13 21:00:00";"7.03"
"Vijverwijk Veghel";"VEGH011_O";"2023-01-13 22:00:00";"7.03"
"Vijverwijk Veghel";"VEGH011_O";"2023-01-13 23:00:00";"7.02"
"Vijverwijk Veghel";"VEGH011_O";"2023-01-14 00:00:00";"6.98"
"Vijverwijk Veghel";"VEGH011_O";"2023-01-14 01:00:00";"6.93"
"Vijverwijk Veghel";"VEGH011_O";"2023-01-14 02:00:00";"6.91"
"Vijverwijk Veghel";"VEGH011_O";"2023-01-14 03:00:00";"6.9"
"Vijverwijk Veghel";"VEGH011_O";"2023-01-14 04:00:00";"6.9"
"Vijverwijk Veghel";"VEGH011_O";"2023-01-14 05:00:00";"6.9"
"Vijverwijk Veghel";"VEGH011_O";"2023-01-14 06:00:00";"6.92"
"Vijverwijk Veghel";"VEGH011_O";"2023-01-14 07:00:00";"6.93"
"Vijverwijk Veghel";"VEGH011_O";"2023-01-14 08:00:00";"6.93"
"Vijverwijk Veghel";"VEGH011_O";"2023-01-14 09:00:00";"6.93"
"Vijverwijk Veghel";"VEGH011_O";"2023-01-14 10:00:00";"6.94"
"Vijverwijk Veghel";"VEGH011_O";"2023-01-14 11:00:00";"6.95"
"Vijverwijk Veghel";"VEGH011_O";"2023-01-14 12:00:00";"6.96"
"Vijverwijk Veghel";"VEGH011_O";"2023-01-14 13:00:00";"6.98"
"Vijverwijk Veghel";"VEGH011_O";"2023-01-14 14:00:00";"6.98"
"Vijverwijk Veghel";"VEGH011_O";"2023-01-14 15:00:00";"6.99"
"Vijverwijk Veghel";"VEGH011_O";"2023-01-14 16:00:00";"7.01"
"Vijverwijk Veghel";"VEGH011_O";"2023-01-14 17:00:00";"7.05"
"Vijverwijk Veghel";"VEGH011_O";"2023-01-14 18:00:00";"7.09"
"Vijverwijk Veghel";"VEGH011_O";"2023-01-14 19:00:00";"7.14"
"Vijverwijk Veghel";"VEGH011_O";"2023-01-14 20:00:00";"7.15"
"Vijverwijk Veghel";"VEGH011_O";"2023-01-14 21:00:00";"7.14"
"Vijverwijk Veghel";"VEGH011_O";"2023-01-14 22:00:00";"7.12"
"Vijverwijk Veghel";"VEGH011_O";"2023-01-14 23:00:00";"7.1"
"Vijverwijk Veghel";"VEGH011_O";"2023-01-15 00:00:00";"7.1"
"Vijverwijk Veghel";"VEGH011_O";"2023-01-15 01:00:00";"7.09"
"Vijverwijk Veghel";"VEGH011_O";"2023-01-15 02:00:00";"7.09"
"Vijverwijk Veghel";"VEGH011_O";"2023-01-15 03:00:00";"7.07"
"Vijverwijk Veghel";"VEGH011_O";"2023-01-15 04:00:00";"7.05"
"Vijverwijk Veghel";"VEGH011_O";"2023-01-15 05:00:00";"7.05"
"Vijverwijk Veghel";"VEGH011_O";"2023-01-15 06:00:00";"7.03"
"Vijverwijk Veghel";"VEGH011_O";"2023-01-15 07:00:00";"7.02"
"Vijverwijk Veghel";"VEGH011_O";"2023-01-15 08:00:00";"7.02"
"Vijverwijk Veghel";"VEGH011_O";"2023-01-15 09:00:00";"7.04"
"Vijverwijk Veghel";"VEGH011_O";"2023-01-15 10:00:00";"7.04"
"Vijverwijk Veghel";"VEGH011_O";"2023-01-15 11:00:00";"7.05"
"Vijverwijk Veghel";"VEGH011_O";"2023-01-15 12:00:00";"7.06"
"Vijverwijk Veghel";"VEGH011_O";"2023-01-15 13:00:00";"7.07"
"Vijverwijk Veghel";"VEGH011_O";"2023-01-15 14:00:00";"7.04"
"Vijverwijk Veghel";"VEGH011_O";"2023-01-15 15:00:00";"7.03"
"Vijverwijk Veghel";"VEGH011_O";"2023-01-15 16:00:00";"7.04"
"Vijverwijk Veghel";"VEGH011_O";"2023-01-15 17:00:00";"7.04"
"Vijverwijk Veghel";"VEGH011_O";"2023-01-15 18:00:00";"6.98"
"Vijverwijk Veghel";"VEGH011_O";"2023-01-15 19:00:00";"6.93"
"Vijverwijk Veghel";"VEGH011_O";"2023-01-15 20:00:00";"6.91"
"Vijverwijk Veghel";"VEGH011_O";"2023-01-15 21:00:00";"6.91"
"Vijverwijk Veghel";"VEGH011_O";"2023-01-15 22:00:00";"6.91"
"Vijverwijk Veghel";"VEGH011_O";"2023-01-15 23:00:00";"6.91"
"Vijverwijk Veghel";"VEGH011_O";"2023-01-16 00:00:00";"6.92"
"Vijverwijk Veghel";"VEGH011_O";"2023-01-16 01:00:00";"6.92"
"Vijverwijk Veghel";"VEGH011_O";"2023-01-16 02:00:00";"6.91"
"Vijverwijk Veghel";"VEGH011_O";"2023-01-16 03:00:00";"6.89"
"Vijverwijk Veghel";"VEGH011_O";"2023-01-16 04:00:00";"6.88"
"Vijverwijk Veghel";"VEGH011_O";"2023-01-16 05:00:00";"6.85"
"Vijverwijk Veghel";"VEGH011_O";"2023-01-16 06:00:00";"6.85"
"Vijverwijk Veghel";"VEGH011_O";"2023-01-16 07:00:00";"6.88"
"Vijverwijk Veghel";"VEGH011_O";"2023-01-16 08:00:00";"6.89"
"Vijverwijk Veghel";"VEGH011_O";"2023-01-16 09:00:00";"6.89"
"Vijverwijk Veghel";"VEGH011_O";"2023-01-16 10:00:00";"6.9"
"Vijverwijk Veghel";"VEGH011_O";"2023-01-16 11:00:00";"6.92"
"Vijverwijk Veghel";"VEGH011_O";"2023-01-16 12:00:00";"6.92"
"Vijverwijk Veghel";"VEGH011_O";"2023-01-16 13:00:00";"6.93"
"Vijverwijk Veghel";"VEGH011_O";"2023-01-16 14:00:00";"6.95"
"Vijverwijk Veghel";"VEGH011_O";"2023-01-16 15:00:00";"6.98"
"Vijverwijk Veghel";"VEGH011_O";"2023-01-16 16:00:00";"6.99"
"Vijverwijk Veghel";"VEGH011_O";"2023-01-16 17:00:00";"6.97"
"Vijverwijk Veghel";"VEGH011_O";"2023-01-16 18:00:00";"6.96"
"Vijverwijk Veghel";"VEGH011_O";"2023-01-16 19:00:00";"6.98"
"Vijverwijk Veghel";"VEGH011_O";"2023-01-16 20:00:00";"6.97"
"Vijverwijk Veghel";"VEGH011_O";"2023-01-16 21:00:00";"6.96"
"Vijverwijk Veghel";"VEGH011_O";"2023-01-16 22:00:00";"6.95"
"Vijverwijk Veghel";"VEGH011_O";"2023-01-16 23:00:00";"6.94"
"Vijverwijk Veghel";"VEGH011_O";"2023-01-17 00:00:00";"6.93"
"Vijverwijk Veghel";"VEGH011_O";"2023-01-17 01:00:00";"6.93"
"Vijverwijk Veghel";"VEGH011_O";"2023-01-17 02:00:00";"6.94"
"Vijverwijk Veghel";"VEGH011_O";"2023-01-17 03:00:00";"6.93"
"Vijverwijk Veghel";"VEGH011_O";"2023-01-17 04:00:00";"6.94"
"Vijverwijk Veghel";"VEGH011_O";"2023-01-17 05:00:00";"6.94"
"Vijverwijk Veghel";"VEGH011_O";"2023-01-17 06:00:00";"6.93"
"Vijverwijk Veghel";"VEGH011_O";"2023-01-17 07:00:00";"6.94"
"Vijverwijk Veghel";"VEGH011_O";"2023-01-17 08:00:00";"6.94"
"Vijverwijk Veghel";"VEGH011_O";"2023-01-17 09:00:00";"6.93"
"Vijverwijk Veghel";"VEGH011_O";"2023-01-17 10:00:00";"6.93"
"Vijverwijk Veghel";"VEGH011_O";"2023-01-17 11:00:00";"6.93"
"Vijverwijk Veghel";"VEGH011_O";"2023-01-17 12:00:00";"6.95"
"Vijverwijk Veghel";"VEGH011_O";"2023-01-17 13:00:00";"6.99"
"Vijverwijk Veghel";"VEGH011_O";"2023-01-17 14:00:00";"7.03"
"Vijverwijk Veghel";"VEGH011_O";"2023-01-17 15:00:00";"7.1"
"Vijverwijk Veghel";"VEGH011_O";"2023-01-17 16:00:00";"7.14"
"Vijverwijk Veghel";"VEGH011_O";"2023-01-17 17:00:00";"7.16"
"Vijverwijk Veghel";"VEGH011_O";"2023-01-17 18:00:00";"7.09"
"Vijverwijk Veghel";"VEGH011_O";"2023-01-17 19:00:00";"6.98"
"Vijverwijk Veghel";"VEGH011_O";"2023-01-17 20:00:00";"6.92"
"Vijverwijk Veghel";"VEGH011_O";"2023-01-17 21:00:00";"6.91"
"Vijverwijk Veghel";"VEGH011_O";"2023-01-17 22:00:00";"6.9"
"Vijverwijk Veghel";"VEGH011_O";"2023-01-17 23:00:00";"6.88"
"Vijverwijk Veghel";"VEGH011_O";"2023-01-18 00:00:00";"6.86"
"Vijverwijk Veghel";"VEGH011_O";"2023-01-18 01:00:00";"6.86"
"Vijverwijk Veghel";"VEGH011_O";"2023-01-18 02:00:00";"6.85"
"Vijverwijk Veghel";"VEGH011_O";"2023-01-18 03:00:00";"6.84"
"Vijverwijk Veghel";"VEGH011_O";"2023-01-18 04:00:00";"6.83"
"Vijverwijk Veghel";"VEGH011_O";"2023-01-18 05:00:00";"6.83"
"Vijverwijk Veghel";"VEGH011_O";"2023-01-18 06:00:00";"6.83"
"Vijverwijk Veghel";"VEGH011_O";"2023-01-18 07:00:00";"6.84"
"Vijverwijk Veghel";"VEGH011_O";"2023-01-18 08:00:00";"6.85"
"Vijverwijk Veghel";"VEGH011_O";"2023-01-18 09:00:00";"6.84"
"Vijverwijk Veghel";"VEGH011_O";"2023-01-18 10:00:00";"6.85"
"Vijverwijk Veghel";"VEGH011_O";"2023-01-18 11:00:00";"6.85"
"Vijverwijk Veghel";"VEGH011_O";"2023-01-18 12:00:00";"6.88"
"Vijverwijk Veghel";"VEGH011_O";"2023-01-18 13:00:00";"6.89"
"Vijverwijk Veghel";"VEGH011_O";"2023-01-18 14:00:00";"6.9"
"Vijverwijk Veghel";"VEGH011_O";"2023-01-18 15:00:00";"6.91"
"Vijverwijk Veghel";"VEGH011_O";"2023-01-18 16:00:00";"6.89"
"Vijverwijk Veghel";"VEGH011_O";"2023-01-18 17:00:00";"6.85"
"Vijverwijk Veghel";"VEGH011_O";"2023-01-18 18:00:00";"6.81"
"Vijverwijk Veghel";"VEGH011_O";"2023-01-18 19:00:00";"6.8"
"Vijverwijk Veghel";"VEGH011_O";"2023-01-18 20:00:00";"6.83"
"Vijverwijk Veghel";"VEGH011_O";"2023-01-18 21:00:00";"6.84"
"Vijverwijk Veghel";"VEGH011_O";"2023-01-18 22:00:00";"6.83"
"Vijverwijk Veghel";"VEGH011_O";"2023-01-18 23:00:00";"6.81"
"Vijverwijk Veghel";"VEGH011_O";"2023-01-19 00:00:00";"6.81"
"Vijverwijk Veghel";"VEGH011_O";"2023-01-19 01:00:00";"6.81"
"Vijverwijk Veghel";"VEGH011_O";"2023-01-19 02:00:00";"6.83"
"Vijverwijk Veghel";"VEGH011_O";"2023-01-19 03:00:00";"6.86"
"Vijverwijk Veghel";"VEGH011_O";"2023-01-19 04:00:00";"6.91"
"Vijverwijk Veghel";"VEGH011_O";"2023-01-19 05:00:00";"6.93"
"Vijverwijk Veghel";"VEGH011_O";"2023-01-19 06:00:00";"6.9"
"Vijverwijk Veghel";"VEGH011_O";"2023-01-19 07:00:00";"6.87"
"Vijverwijk Veghel";"VEGH011_O";"2023-01-19 08:00:00";"6.86"
"Vijverwijk Veghel";"VEGH011_O";"2023-01-19 09:00:00";"6.87"
"Vijverwijk Veghel";"VEGH011_O";"2023-01-19 10:00:00";"6.88"
"Vijverwijk Veghel";"VEGH011_O";"2023-01-19 11:00:00";"6.89"
"Vijverwijk Veghel";"VEGH011_O";"2023-01-19 12:00:00";"6.9"
"Vijverwijk Veghel";"VEGH011_O";"2023-01-19 13:00:00";"6.93"
"Vijverwijk Veghel";"VEGH011_O";"2023-01-19 14:00:00";"6.97"
"Vijverwijk Veghel";"VEGH011_O";"2023-01-19 15:00:00";"6.97"
"Vijverwijk Veghel";"VEGH011_O";"2023-01-19 16:00:00";"6.93"
"Vijverwijk Veghel";"VEGH011_O";"2023-01-19 17:00:00";"6.88"
"Vijverwijk Veghel";"VEGH011_O";"2023-01-19 18:00:00";"6.86"
"Vijverwijk Veghel";"VEGH011_O";"2023-01-19 19:00:00";"6.85"
"Vijverwijk Veghel";"VEGH011_O";"2023-01-19 20:00:00";"6.84"
"Vijverwijk Veghel";"VEGH011_O";"2023-01-19 21:00:00";"6.84"
"Vijverwijk Veghel";"VEGH011_O";"2023-01-19 22:00:00";"6.84"
"Vijverwijk Veghel";"VEGH011_O";"2023-01-19 23:00:00";"6.84"
"Vijverwijk Veghel";"VEGH011_O";"2023-01-20 00:00:00";"6.85"
"Vijverwijk Veghel";"VEGH011_O";"2023-01-20 01:00:00";"6.86"
"Vijverwijk Veghel";"VEGH011_O";"2023-01-20 02:00:00";"6.87"
"Vijverwijk Veghel";"VEGH011_O";"2023-01-20 03:00:00";"6.94"
"Vijverwijk Veghel";"VEGH011_O";"2023-01-20 04:00:00";"6.95"
"Vijverwijk Veghel";"VEGH011_O";"2023-01-20 05:00:00";"6.94"
"Vijverwijk Veghel";"VEGH011_O";"2023-01-20 06:00:00";"6.93"
"Vijverwijk Veghel";"VEGH011_O";"2023-01-20 07:00:00";"6.93"
"Vijverwijk Veghel";"VEGH011_O";"2023-01-20 08:00:00";"6.93"
"Vijverwijk Veghel";"VEGH011_O";"2023-01-20 09:00:00";"6.94"
"Vijverwijk Veghel";"VEGH011_O";"2023-01-20 10:00:00";"6.96"
"Vijverwijk Veghel";"VEGH011_O";"2023-01-20 11:00:00";"6.96"
"Vijverwijk Veghel";"VEGH011_O";"2023-01-20 12:00:00";"6.94"
"Vijverwijk Veghel";"VEGH011_O";"2023-01-20 13:00:00";"6.9"
"Vijverwijk Veghel";"VEGH011_O";"2023-01-20 14:00:00";"6.88"
"Vijverwijk Veghel";"VEGH011_O";"2023-01-20 15:00:00";"6.88"
"Vijverwijk Veghel";"VEGH011_O";"2023-01-20 16:00:00";"6.87"
"Vijverwijk Veghel";"VEGH011_O";"2023-01-20 17:00:00";"6.86"
"Vijverwijk Veghel";"VEGH011_O";"2023-01-20 18:00:00";"6.85"
"Vijverwijk Veghel";"VEGH011_O";"2023-01-20 19:00:00";"6.87"
"Vijverwijk Veghel";"VEGH011_O";"2023-01-20 20:00:00";"6.87"
"Vijverwijk Veghel";"VEGH011_O";"2023-01-20 21:00:00";"6.85"
"Vijverwijk Veghel";"VEGH011_O";"2023-01-20 22:00:00";"6.84"
"Vijverwijk Veghel";"VEGH011_O";"2023-01-20 23:00:00";"6.83"
"Vijverwijk Veghel";"VEGH011_O";"2023-01-21 00:00:00";"6.83"
"Vijverwijk Veghel";"VEGH011_O";"2023-01-21 01:00:00";"6.82"
"Vijverwijk Veghel";"VEGH011_O";"2023-01-21 02:00:00";"6.81"
"Vijverwijk Veghel";"VEGH011_O";"2023-01-21 03:00:00";"6.8"
"Vijverwijk Veghel";"VEGH011_O";"2023-01-21 04:00:00";"6.79"
"Vijverwijk Veghel";"VEGH011_O";"2023-01-21 05:00:00";"6.79"
"Vijverwijk Veghel";"VEGH011_O";"2023-01-21 06:00:00";"6.78"
"Vijverwijk Veghel";"VEGH011_O";"2023-01-21 07:00:00";"6.77"
"Vijverwijk Veghel";"VEGH011_O";"2023-01-21 08:00:00";"6.75"
"Vijverwijk Veghel";"VEGH011_O";"2023-01-21 09:00:00";"6.73"
"Vijverwijk Veghel";"VEGH011_O";"2023-01-21 10:00:00";"6.76"
"Vijverwijk Veghel";"VEGH011_O";"2023-01-21 11:00:00";"6.79"
"Vijverwijk Veghel";"VEGH011_O";"2023-01-21 12:00:00";"6.79"
"Vijverwijk Veghel";"VEGH011_O";"2023-01-21 13:00:00";"6.8"
"Vijverwijk Veghel";"VEGH011_O";"2023-01-21 14:00:00";"6.83"
"Vijverwijk Veghel";"VEGH011_O";"2023-01-21 15:00:00";"6.88"
"Vijverwijk Veghel";"VEGH011_O";"2023-01-21 16:00:00";"6.9"
"Vijverwijk Veghel";"VEGH011_O";"2023-01-21 17:00:00";"6.89"
"Vijverwijk Veghel";"VEGH011_O";"2023-01-21 18:00:00";"6.86"
"Vijverwijk Veghel";"VEGH011_O";"2023-01-21 19:00:00";"6.82"
"Vijverwijk Veghel";"VEGH011_O";"2023-01-21 20:00:00";"6.8"
"Vijverwijk Veghel";"VEGH011_O";"2023-01-21 21:00:00";"6.8"
"Vijverwijk Veghel";"VEGH011_O";"2023-01-21 22:00:00";"6.79"
"Vijverwijk Veghel";"VEGH011_O";"2023-01-21 23:00:00";"6.79"
"Vijverwijk Veghel";"VEGH011_O";"2023-01-22 00:00:00";"6.78"
"Vijverwijk Veghel";"VEGH011_O";"2023-01-22 01:00:00";"6.77"
"Vijverwijk Veghel";"VEGH011_O";"2023-01-22 02:00:00";"6.76"
"Vijverwijk Veghel";"VEGH011_O";"2023-01-22 03:00:00";"6.76"
"Vijverwijk Veghel";"VEGH011_O";"2023-01-22 04:00:00";"6.75"
"Vijverwijk Veghel";"VEGH011_O";"2023-01-22 05:00:00";"6.76"
"Vijverwijk Veghel";"VEGH011_O";"2023-01-22 06:00:00";"6.77"
"Vijverwijk Veghel";"VEGH011_O";"2023-01-22 07:00:00";"6.78"
"Vijverwijk Veghel";"VEGH011_O";"2023-01-22 08:00:00";"6.78"
"Vijverwijk Veghel";"VEGH011_O";"2023-01-22 09:00:00";"6.78"
"Vijverwijk Veghel";"VEGH011_O";"2023-01-22 10:00:00";"6.79"
"Vijverwijk Veghel";"VEGH011_O";"2023-01-22 11:00:00";"6.8"
"Vijverwijk Veghel";"VEGH011_O";"2023-01-22 12:00:00";"6.82"
"Vijverwijk Veghel";"VEGH011_O";"2023-01-22 13:00:00";"6.83"
"Vijverwijk Veghel";"VEGH011_O";"2023-01-22 14:00:00";"6.85"
"Vijverwijk Veghel";"VEGH011_O";"2023-01-22 15:00:00";"6.86"
"Vijverwijk Veghel";"VEGH011_O";"2023-01-22 16:00:00";"6.86"
"Vijverwijk Veghel";"VEGH011_O";"2023-01-22 17:00:00";"6.85"
"Vijverwijk Veghel";"VEGH011_O";"2023-01-22 18:00:00";"6.85"
"Vijverwijk Veghel";"VEGH011_O";"2023-01-22 19:00:00";"6.85"
"Vijverwijk Veghel";"VEGH011_O";"2023-01-22 20:00:00";"6.84"
"Vijverwijk Veghel";"VEGH011_O";"2023-01-22 21:00:00";"6.84"
"Vijverwijk Veghel";"VEGH011_O";"2023-01-22 22:00:00";"6.84"
"Vijverwijk Veghel";"VEGH011_O";"2023-01-22 23:00:00";"6.83"
"Vijverwijk Veghel";"VEGH011_O";"2023-01-23 00:00:00";"6.83"
"Vijverwijk Veghel";"VEGH011_O";"2023-01-23 01:00:00";"6.83"
"Vijverwijk Veghel";"VEGH011_O";"2023-01-23 02:00:00";"6.82"
"Vijverwijk Veghel";"VEGH011_O";"2023-01-23 03:00:00";"6.82"
"Vijverwijk Veghel";"VEGH011_O";"2023-01-23 04:00:00";"6.79"
"Vijverwijk Veghel";"VEGH011_O";"2023-01-23 05:00:00";"6.78"
"Vijverwijk Veghel";"VEGH011_O";"2023-01-23 06:00:00";"6.8"
"Vijverwijk Veghel";"VEGH011_O";"2023-01-23 07:00:00";"6.81"
"Vijverwijk Veghel";"VEGH011_O";"2023-01-23 08:00:00";"6.82"
"Vijverwijk Veghel";"VEGH011_O";"2023-01-23 09:00:00";"6.82"
"Vijverwijk Veghel";"VEGH011_O";"2023-01-23 10:00:00";"6.82"
"Vijverwijk Veghel";"VEGH011_O";"2023-01-23 11:00:00";"6.84"
"Vijverwijk Veghel";"VEGH011_O";"2023-01-23 12:00:00";"6.85"
"Vijverwijk Veghel";"VEGH011_O";"2023-01-23 13:00:00";"6.85"
"Vijverwijk Veghel";"VEGH011_O";"2023-01-23 14:00:00";"6.85"
"Vijverwijk Veghel";"VEGH011_O";"2023-01-23 15:00:00";"6.86"
"Vijverwijk Veghel";"VEGH011_O";"2023-01-23 16:00:00";"6.86"
"Vijverwijk Veghel";"VEGH011_O";"2023-01-23 17:00:00";"6.85"
"Vijverwijk Veghel";"VEGH011_O";"2023-01-23 18:00:00";"6.85"
"Vijverwijk Veghel";"VEGH011_O";"2023-01-23 19:00:00";"6.85"
"Vijverwijk Veghel";"VEGH011_O";"2023-01-23 20:00:00";"6.85"
"Vijverwijk Veghel";"VEGH011_O";"2023-01-23 21:00:00";"6.84"
"Vijverwijk Veghel";"VEGH011_O";"2023-01-23 22:00:00";"6.84"
"Vijverwijk Veghel";"VEGH011_O";"2023-01-23 23:00:00";"6.85"
"Vijverwijk Veghel";"VEGH011_O";"2023-01-24 00:00:00";"6.88"
"Vijverwijk Veghel";"VEGH011_O";"2023-01-24 01:00:00";"6.9"
"Vijverwijk Veghel";"VEGH011_O";"2023-01-24 02:00:00";"6.89"
"Vijverwijk Veghel";"VEGH011_O";"2023-01-24 03:00:00";"6.87"
"Vijverwijk Veghel";"VEGH011_O";"2023-01-24 04:00:00";"6.88"
"Vijverwijk Veghel";"VEGH011_O";"2023-01-24 05:00:00";"6.88"
"Vijverwijk Veghel";"VEGH011_O";"2023-01-24 06:00:00";"6.88"
"Vijverwijk Veghel";"VEGH011_O";"2023-01-24 07:00:00";"6.88"
"Vijverwijk Veghel";"VEGH011_O";"2023-01-24 08:00:00";"6.86"
"Vijverwijk Veghel";"VEGH011_O";"2023-01-24 09:00:00";"6.86"
"Vijverwijk Veghel";"VEGH011_O";"2023-01-24 10:00:00";"6.87"
"Vijverwijk Veghel";"VEGH011_O";"2023-01-24 11:00:00";"6.89"
"Vijverwijk Veghel";"VEGH011_O";"2023-01-24 12:00:00";"6.89"
"Vijverwijk Veghel";"VEGH011_O";"2023-01-24 13:00:00";"6.84"
"Vijverwijk Veghel";"VEGH011_O";"2023-01-24 14:00:00";"6.76"
"Vijverwijk Veghel";"VEGH011_O";"2023-01-24 15:00:00";"6.72"
"Vijverwijk Veghel";"VEGH011_O";"2023-01-24 16:00:00";"6.73"
"Vijverwijk Veghel";"VEGH011_O";"2023-01-24 17:00:00";"6.74"
"Vijverwijk Veghel";"VEGH011_O";"2023-01-24 18:00:00";"6.75"
"Vijverwijk Veghel";"VEGH011_O";"2023-01-24 19:00:00";"6.74"
"Vijverwijk Veghel";"VEGH011_O";"2023-01-24 20:00:00";"6.73"
"Vijverwijk Veghel";"VEGH011_O";"2023-01-24 21:00:00";"6.73"
"Vijverwijk Veghel";"VEGH011_O";"2023-01-24 22:00:00";"6.73"
"Vijverwijk Veghel";"VEGH011_O";"2023-01-24 23:00:00";"6.73"
"Vijverwijk Veghel";"VEGH011_O";"2023-01-25 00:00:00";"6.72"
"Vijverwijk Veghel";"VEGH011_O";"2023-01-25 01:00:00";"6.72"
"Vijverwijk Veghel";"VEGH011_O";"2023-01-25 02:00:00";"6.72"
"Vijverwijk Veghel";"VEGH011_O";"2023-01-25 03:00:00";"6.73"
"Vijverwijk Veghel";"VEGH011_O";"2023-01-25 04:00:00";"6.73"
"Vijverwijk Veghel";"VEGH011_O";"2023-01-25 05:00:00";"6.72"
"Vijverwijk Veghel";"VEGH011_O";"2023-01-25 06:00:00";"6.71"
"Vijverwijk Veghel";"VEGH011_O";"2023-01-25 07:00:00";"6.71"
"Vijverwijk Veghel";"VEGH011_O";"2023-01-25 08:00:00";"6.71"
"Vijverwijk Veghel";"VEGH011_O";"2023-01-25 09:00:00";"6.7"
"Vijverwijk Veghel";"VEGH011_O";"2023-01-25 10:00:00";"6.67"
"Vijverwijk Veghel";"VEGH011_O";"2023-01-25 11:00:00";"6.65"
"Vijverwijk Veghel";"VEGH011_O";"2023-01-25 12:00:00";"6.65"
"Vijverwijk Veghel";"VEGH011_O";"2023-01-25 13:00:00";"6.65"
"Vijverwijk Veghel";"VEGH011_O";"2023-01-25 14:00:00";"6.65"
"Vijverwijk Veghel";"VEGH011_O";"2023-01-25 15:00:00";"6.65"
"Vijverwijk Veghel";"VEGH011_O";"2023-01-25 16:00:00";"6.65"
"Vijverwijk Veghel";"VEGH011_O";"2023-01-25 17:00:00";"6.65"
"Vijverwijk Veghel";"VEGH011_O";"2023-01-25 18:00:00";"6.66"
"Vijverwijk Veghel";"VEGH011_O";"2023-01-25 19:00:00";"6.65"
"Vijverwijk Veghel";"VEGH011_O";"2023-01-25 20:00:00";"6.65"
"Vijverwijk Veghel";"VEGH011_O";"2023-01-25 21:00:00";"6.65"
"Vijverwijk Veghel";"VEGH011_O";"2023-01-25 22:00:00";"6.65"
"Vijverwijk Veghel";"VEGH011_O";"2023-01-25 23:00:00";"6.65"
"Vijverwijk Veghel";"VEGH011_O";"2023-01-26 00:00:00";"6.65"
"Vijverwijk Veghel";"VEGH011_O";"2023-01-26 01:00:00";"6.65"
"Vijverwijk Veghel";"VEGH011_O";"2023-01-26 02:00:00";"6.65"
"Vijverwijk Veghel";"VEGH011_O";"2023-01-26 03:00:00";"6.65"
"Vijverwijk Veghel";"VEGH011_O";"2023-01-26 04:00:00";"6.65"
"Vijverwijk Veghel";"VEGH011_O";"2023-01-26 05:00:00";"6.65"
"Vijverwijk Veghel";"VEGH011_O";"2023-01-26 06:00:00";"6.65"
"Vijverwijk Veghel";"VEGH011_O";"2023-01-26 07:00:00";"6.65"
"Vijverwijk Veghel";"VEGH011_O";"2023-01-26 08:00:00";"6.65"
"Vijverwijk Veghel";"VEGH011_O";"2023-01-26 09:00:00";"6.65"
"Vijverwijk Veghel";"VEGH011_O";"2023-01-26 10:00:00";"6.65"
"Vijverwijk Veghel";"VEGH011_O";"2023-01-26 11:00:00";"6.65"
"Vijverwijk Veghel";"VEGH011_O";"2023-01-26 12:00:00";"6.67"
"Vijverwijk Veghel";"VEGH011_O";"2023-01-26 13:00:00";"6.71"
"Vijverwijk Veghel";"VEGH011_O";"2023-01-26 14:00:00";"6.75"
"Vijverwijk Veghel";"VEGH011_O";"2023-01-26 15:00:00";"6.78"
"Vijverwijk Veghel";"VEGH011_O";"2023-01-26 16:00:00";"6.83"
"Vijverwijk Veghel";"VEGH011_O";"2023-01-26 17:00:00";"6.81"
"Vijverwijk Veghel";"VEGH011_O";"2023-01-26 18:00:00";"6.71"
"Vijverwijk Veghel";"VEGH011_O";"2023-01-26 19:00:00";"6.65"
"Vijverwijk Veghel";"VEGH011_O";"2023-01-26 20:00:00";"6.65"
"Vijverwijk Veghel";"VEGH011_O";"2023-01-26 21:00:00";"6.65"
"Vijverwijk Veghel";"VEGH011_O";"2023-01-26 22:00:00";"6.65"
"Vijverwijk Veghel";"VEGH011_O";"2023-01-26 23:00:00";"6.67"
"Vijverwijk Veghel";"VEGH011_O";"2023-01-27 00:00:00";"6.68"
"Vijverwijk Veghel";"VEGH011_O";"2023-01-27 01:00:00";"6.67"
"Vijverwijk Veghel";"VEGH011_O";"2023-01-27 02:00:00";"6.67"
"Vijverwijk Veghel";"VEGH011_O";"2023-01-27 03:00:00";"6.67"
"Vijverwijk Veghel";"VEGH011_O";"2023-01-27 04:00:00";"6.66"
"Vijverwijk Veghel";"VEGH011_O";"2023-01-27 05:00:00";"6.66"
"Vijverwijk Veghel";"VEGH011_O";"2023-01-27 06:00:00";"6.68"
"Vijverwijk Veghel";"VEGH011_O";"2023-01-27 07:00:00";"6.68"
"Vijverwijk Veghel";"VEGH011_O";"2023-01-27 08:00:00";"6.66"
"Vijverwijk Veghel";"VEGH011_O";"2023-01-27 09:00:00";"6.67"
"Vijverwijk Veghel";"VEGH011_O";"2023-01-27 10:00:00";"6.7"
"Vijverwijk Veghel";"VEGH011_O";"2023-01-27 11:00:00";"6.73"
"Vijverwijk Veghel";"VEGH011_O";"2023-01-27 12:00:00";"6.78"
"Vijverwijk Veghel";"VEGH011_O";"2023-01-27 13:00:00";"6.82"
"Vijverwijk Veghel";"VEGH011_O";"2023-01-27 14:00:00";"6.88"
"Vijverwijk Veghel";"VEGH011_O";"2023-01-27 15:00:00";"6.94"
"Vijverwijk Veghel";"VEGH011_O";"2023-01-27 16:00:00";"6.95"
"Vijverwijk Veghel";"VEGH011_O";"2023-01-27 17:00:00";"6.94"
"Vijverwijk Veghel";"VEGH011_O";"2023-01-27 18:00:00";"6.9"
"Vijverwijk Veghel";"VEGH011_O";"2023-01-27 19:00:00";"6.88"
"Vijverwijk Veghel";"VEGH011_O";"2023-01-27 20:00:00";"6.87"
"Vijverwijk Veghel";"VEGH011_O";"2023-01-27 21:00:00";"6.86"
"Vijverwijk Veghel";"VEGH011_O";"2023-01-27 22:00:00";"6.87"
"Vijverwijk Veghel";"VEGH011_O";"2023-01-27 23:00:00";"6.87"
"Vijverwijk Veghel";"VEGH011_O";"2023-01-28 00:00:00";"6.86"
"Vijverwijk Veghel";"VEGH011_O";"2023-01-28 01:00:00";"6.86"
"Vijverwijk Veghel";"VEGH011_O";"2023-01-28 02:00:00";"6.86"
"Vijverwijk Veghel";"VEGH011_O";"2023-01-28 03:00:00";"6.85"
"Vijverwijk Veghel";"VEGH011_O";"2023-01-28 04:00:00";"6.82"
"Vijverwijk Veghel";"VEGH011_O";"2023-01-28 05:00:00";"6.81"
"Vijverwijk Veghel";"VEGH011_O";"2023-01-28 06:00:00";"6.8"
"Vijverwijk Veghel";"VEGH011_O";"2023-01-28 07:00:00";"6.8"
"Vijverwijk Veghel";"VEGH011_O";"2023-01-28 08:00:00";"6.8"
"Vijverwijk Veghel";"VEGH011_O";"2023-01-28 09:00:00";"6.81"
"Vijverwijk Veghel";"VEGH011_O";"2023-01-28 10:00:00";"6.81"
"Vijverwijk Veghel";"VEGH011_O";"2023-01-28 11:00:00";"6.83"
"Vijverwijk Veghel";"VEGH011_O";"2023-01-28 12:00:00";"6.84"
"Vijverwijk Veghel";"VEGH011_O";"2023-01-28 13:00:00";"6.84"
"Vijverwijk Veghel";"VEGH011_O";"2023-01-28 14:00:00";"6.86"
"Vijverwijk Veghel";"VEGH011_O";"2023-01-28 15:00:00";"6.88"
"Vijverwijk Veghel";"VEGH011_O";"2023-01-28 16:00:00";"6.9"
"Vijverwijk Veghel";"VEGH011_O";"2023-01-28 17:00:00";"6.91"
"Vijverwijk Veghel";"VEGH011_O";"2023-01-28 18:00:00";"6.91"
"Vijverwijk Veghel";"VEGH011_O";"2023-01-28 19:00:00";"6.88"